| time (UTC) | temp F | wind direction | speed MPH | gust MPH | rain 1hr in | rain 24hr in | rain mn in | humidity % | barometer mb |
| 20260906105100 | 65 | 337 | 0.0 | 5.0 | 0.00 | 0.25 | 0.25 | 98 | 1007.6 |
| 20260906102359 | 67 | 337 | 0.0 | 1.0 | 0.04 | 0.25 | 0.25 | 98 | 1007.6 |
| 20260906095700 | 65 | 0 | 0.0 | 0.0 | 0.04 | 0.25 | 0.25 | 98 | 1007.6 |
| 20260906094759 | 64 | 337 | 0.0 | 1.0 | 0.04 | 0.25 | 0.25 | 98 | 1007.6 |
| 20260906093900 | 64 | 0 | 0.0 | 0.0 | 0.04 | 0.25 | 0.25 | 98 | 1007.6 |
| 20260906092959 | 64 | 0 | 0.0 | 0.0 | 0.04 | 0.25 | 0.25 | 98 | 1007.6 |
| 20260906092059 | 64 | 337 | 0.0 | 8.0 | 0.04 | 0.21 | 0.21 | 98 | 1007.6 |
| 20260906091159 | 64 | 0 | 0.0 | 0.0 | 0.04 | 0.21 | 0.21 | 98 | 1007.6 |
| 20260906090259 | 64 | 0 | 0.0 | 0.0 | 0.04 | 0.21 | 0.21 | 98 | 1007.6 |
| 20260906085359 | 64 | 0 | 0.0 | 0.0 | 0.04 | 0.21 | 0.21 | 98 | 1007.6 |
| 20260906084459 | 64 | 0 | 0.0 | 0.0 | 0.04 | 0.21 | 0.21 | 98 | 1007.6 |
| 20260906083559 | 64 | 0 | 0.0 | 0.0 | 0.04 | 0.21 | 0.21 | 98 | 1007.6 |
| 20260906081759 | 64 | 0 | 0.0 | 0.0 | 0.00 | 0.17 | 0.17 | 98 | 1007.6 |
| 20260906080859 | 64 | 0 | 0.0 | 0.0 | 0.00 | 0.17 | 0.17 | 98 | 1007.6 |
| 20260906075959 | 64 | 0 | 0.0 | 0.0 | 0.00 | 0.17 | 0.17 | 98 | 1007.6 |
| 20260906075059 | 64 | 0 | 0.0 | 0.0 | 0.00 | 0.17 | 0.17 | 98 | 1007.6 |
| 20260906074159 | 64 | 0 | 0.0 | 0.0 | 0.00 | 0.17 | 0.17 | 98 | 1006.6 |
| 20260906073259 | 64 | 337 | 0.0 | 1.0 | 0.05 | 0.17 | 0.17 | 98 | 1006.6 |
| 20260906072359 | 64 | 337 | 0.0 | 1.0 | 0.09 | 0.17 | 0.17 | 98 | 1006.6 |
| 20260906065659 | 63 | 0 | 0.0 | 0.0 | 0.13 | 0.17 | 0.17 | 98 | 1007.6 |
| 20260906064759 | 63 | 337 | 0.0 | 3.0 | 0.13 | 0.17 | 0.17 | 98 | 1007.6 |
| 20260906063902 | 63 | 0 | 0.0 | 0.0 | 0.08 | 0.12 | 0.12 | 98 | 1007.6 |
| 20260906062958 | 63 | 0 | 0.0 | 0.0 | 0.08 | 0.12 | 0.12 | 98 | 1007.6 |
| 20260906062059 | 63 | 0 | 0.0 | 0.0 | 0.04 | 0.08 | 0.08 | 98 | 1007.6 |
| 20260906061159 | 63 | 0 | 0.0 | 0.0 | 0.00 | 0.04 | 0.04 | 98 | 1006.6 |
| 20260906060258 | 63 | 337 | 0.0 | 1.0 | 0.00 | 0.04 | 0.04 | 98 | 1006.6 |
| 20260906055358 | 63 | 337 | 0.0 | 1.0 | 0.04 | 0.04 | 0.04 | 98 | 1006.6 |
| 20260906054458 | 63 | 0 | 0.0 | 0.0 | 0.04 | 0.04 | 0.04 | 98 | 1006.6 |
| 20260906053558 | 63 | 0 | 0.0 | 0.0 | 0.04 | 0.04 | 0.04 | 98 | 1006.6 |
| 20260906052658 | 63 | 135 | 0.0 | 1.0 | 0.04 | 0.04 | 0.04 | 98 | 1006.6 |
| 20260906051758 | 63 | 33 | 0.0 | 4.0 | 0.04 | 0.04 | 0.04 | 98 | 1006.6 |
| 20260906050858 | 63 | 0 | 0.0 | 0.0 | 0.04 | 0.04 | 0.04 | 98 | 1006.6 |
| 20260906045959 | 63 | 159 | 0.0 | 8.0 | 0.04 | 0.04 | 0.04 | 96 | 1006.6 |
| 20260906045058 | 63 | 0 | 0.0 | 0.0 | 0.00 | 0.00 | 0.00 | 92 | 1006.6 |
| 20260906044158 | 63 | 0 | 0.0 | 0.0 | 0.00 | 0.00 | 0.00 | 87 | 1006.6 |
| 20260906043258 | 64 | 0 | 0.0 | 0.0 | 0.00 | 0.00 | 0.00 | 81 | 1006.6 |
| 20260906042358 | 65 | 292 | 0.0 | 3.0 | 0.00 | 0.00 | 0.00 | 74 | 1007.6 |
| 20260906041458 | 65 | 337 | 0.0 | 4.0 | 0.00 | 0.00 | 0.00 | 71 | 1007.6 |
| 20260906040558 | 65 | 337 | 0.0 | 4.0 | 0.00 | 0.00 | 0.00 | 70 | 1007.6 |
| 20260906035658 | 66 | 0 | 0.0 | 0.0 | 0.00 | 0.00 | 0.00 | 63 | 1007.6 |
| 20260906034758 | 67 | 0 | 0.0 | 0.0 | 0.00 | 0.00 | 0.00 | 60 | 1007.6 |
| 20260906033858 | 67 | 0 | 0.0 | 0.0 | 0.00 | 0.00 | 0.00 | 53 | 1007.6 |
| 20260906032958 | 67 | 0 | 0.0 | 0.0 | 0.00 | 0.00 | 0.00 | 50 | 1007.6 |
| 20260906032058 | 67 | 0 | 0.0 | 0.0 | 0.00 | 0.00 | 0.00 | 48 | 1007.6 |
| 20260906031158 | 67 | 0 | 0.0 | 0.0 | 0.00 | 0.00 | 0.00 | 45 | 1006.6 |
| 20260906030258 | 67 | 0 | 0.0 | 0.0 | 0.00 | 0.00 | 0.00 | 41 | 1006.6 |
| 20260906025358 | 67 | 112 | 0.0 | 5.0 | 0.00 | 0.00 | 0.00 | 40 | 1006.6 |
| 20260906024458 | 67 | 292 | 0.0 | 1.0 | 0.00 | 0.00 | 0.00 | 40 | 1006.6 |
| 20260906023558 | 67 | 0 | 0.0 | 0.0 | 0.00 | 0.00 | 0.00 | 40 | 1006.6 |
| 20260906022658 | 67 | 0 | 0.0 | 0.0 | 0.00 | 0.00 | 0.00 | 40 | 1006.6 |
| 20260906020857 | 67 | 158 | 1.0 | 5.0 | 0.00 | 0.00 | 0.00 | 39 | 1006.6 |
| 20260906015958 | 67 | 0 | 0.0 | 0.0 | 0.00 | 0.00 | 0.00 | 39 | 1006.6 |
| 20260906015058 | 67 | 203 | 0.0 | 1.0 | 0.00 | 0.00 | 0.00 | 38 | 1006.6 |
| 20260906013257 | 68 | 158 | 0.0 | 2.0 | 0.00 | 0.00 | 0.00 | 38 | 1006.6 |
| 20260906012357 | 68 | 184 | 0.0 | 5.0 | 0.00 | 0.00 | 0.00 | 38 | 1006.6 |
| 20260906011457 | 68 | 177 | 2.0 | 4.0 | 0.00 | 0.00 | 0.00 | 38 | 1006.6 |
| 20260906010557 | 68 | 112 | 1.0 | 4.0 | 0.00 | 0.00 | 0.00 | 39 | 1006.6 |
| 20260906005657 | 67 | 196 | 0.0 | 3.0 | 0.00 | 0.00 | 0.00 | 39 | 1006.6 |
| 20260906004757 | 67 | 181 | 0.0 | 1.0 | 0.00 | 0.00 | 0.00 | 40 | 1006.6 |
| 20260906003857 | 67 | 181 | 0.0 | 1.0 | 0.00 | 0.00 | 0.00 | 40 | 1006.6 |
| 20260906002957 | 67 | 121 | 0.0 | 4.0 | 0.00 | 0.00 | 0.00 | 41 | 1006.6 |
| 20260906002057 | 67 | 201 | 0.0 | 3.0 | 0.00 | 0.00 | 0.00 | 41 | 1006.6 |
| 20260906001157 | 67 | 203 | 0.0 | 1.0 | 0.00 | 0.00 | 0.00 | 42 | 1007.6 |
| 20260906000257 | 67 | 181 | 0.0 | 4.0 | 0.00 | 0.00 | 0.00 | 43 | 1007.6 |
| 20260905234457 | 67 | 165 | 0.0 | 3.0 | 0.00 | 0.00 | 0.00 | 44 | 1006.6 |
| 20260905233557 | 67 | 203 | 0.0 | 1.0 | 0.00 | 0.00 | 0.00 | 44 | 1007.6 |
| 20260905231757 | 68 | 0 | 0.0 | 0.0 | 0.00 | 0.00 | 0.00 | 43 | 1007.6 |
| 20260905230857 | 69 | 0 | 0.0 | 0.0 | 0.00 | 0.00 | 0.00 | 42 | 1007.6 |
| 20260905225957 | 69 | 0 | 0.0 | 0.0 | 0.00 | 0.00 | 0.00 | 42 | 1007.6 |
| 20260905225057 | 69 | 203 | 0.0 | 3.0 | 0.00 | 0.00 | 0.00 | 41 | 1007.6 |
| 20260905224157 | 69 | 0 | 0.0 | 0.0 | 0.00 | 0.00 | 0.00 | 40 | 1006.6 |
| 20260905223257 | 69 | 181 | 0.0 | 1.0 | 0.00 | 0.00 | 0.00 | 40 | 1006.6 |
| 20260905221457 | 69 | 198 | 0.0 | 4.0 | 0.00 | 0.00 | 0.00 | 40 | 1006.6 |
| 20260905215657 | 69 | 158 | 0.0 | 6.0 | 0.00 | 0.00 | 0.00 | 42 | 1007.6 |
| 20260905214757 | 68 | 0 | 0.0 | 0.0 | 0.00 | 0.00 | 0.00 | 43 | 1007.6 |
| 20260905213856 | 68 | 0 | 0.0 | 0.0 | 0.00 | 0.00 | 0.00 | 43 | 1007.6 |
| 20260905212956 | 68 | 0 | 0.0 | 0.0 | 0.00 | 0.00 | 0.00 | 43 | 1007.6 |
| 20260905212056 | 68 | 0 | 0.0 | 0.0 | 0.00 | 0.00 | 0.00 | 41 | 1008.6 |
| 20260905211157 | 69 | 0 | 0.0 | 0.0 | 0.00 | 0.00 | 0.00 | 37 | 1008.6 |
| 20260905205349 | 73 | 314 | 0.0 | 1.0 | 0.00 | 0.00 | 0.00 | 23 | 1008.6 |
| 20260905204449 | 74 | 314 | 0.0 | 3.0 | 0.00 | 0.00 | 0.00 | 23 | 1008.6 |
| 20260905203549 | 74 | 154 | 0.0 | 3.0 | 0.00 | 0.00 | 0.00 | 22 | 1009.6 |
| 20260905202649 | 74 | 263 | 0.0 | 4.0 | 0.00 | 0.00 | 0.00 | 22 | 1009.6 |
| 20260905201749 | 74 | 0 | 0.0 | 0.0 | 0.00 | 0.00 | 0.00 | 23 | 1009.6 |
| 20260905200849 | 74 | 182 | 0.0 | 4.0 | 0.00 | 0.00 | 0.00 | 23 | 1007.6 |
| 20260905195949 | 74 | 158 | 0.0 | 4.0 | 0.00 | 0.00 | 0.00 | 23 | 1007.6 |
| 20260905194149 | 74 | 0 | 0.0 | 0.0 | 0.00 | 0.00 | 0.00 | 22 | 1008.6 |
| 20260905193249 | 74 | 158 | 0.0 | 3.0 | 0.00 | 0.00 | 0.00 | 22 | 1008.6 |
| 20260905191448 | 74 | 0 | 0.0 | 0.0 | 0.00 | 0.00 | 0.00 | 22 | 1008.6 |
| 20260905185648 | 74 | 171 | 1.0 | 4.0 | 0.00 | 0.00 | 0.00 | 23 | 1009.6 |
| 20260905184749 | 74 | 0 | 0.0 | 0.0 | 0.00 | 0.00 | 0.00 | 23 | 1009.6 |
| 20260905183848 | 74 | 158 | 0.0 | 3.0 | 0.00 | 0.00 | 0.00 | 23 | 1009.6 |
| 20260905182949 | 74 | 158 | 1.0 | 3.0 | 0.00 | 0.00 | 0.00 | 23 | 1009.6 |
| 20260905182048 | 73 | 225 | 0.0 | 3.0 | 0.00 | 0.00 | 0.00 | 24 | 1009.6 |
| 20260905181148 | 73 | 0 | 0.0 | 0.0 | 0.00 | 0.00 | 0.00 | 24 | 1009.6 |
| 20260905174448 | 73 | 203 | 0.0 | 3.0 | 0.00 | 0.00 | 0.00 | 24 | 1009.6 |
| 20260905173548 | 73 | 0 | 0.0 | 0.0 | 0.00 | 0.00 | 0.00 | 24 | 1009.6 |
| 20260905172648 | 73 | 0 | 0.0 | 0.0 | 0.00 | 0.00 | 0.00 | 24 | 1009.6 |
| 20260905170848 | 73 | 0 | 0.0 | 0.0 | 0.00 | 0.00 | 0.00 | 24 | 1009.6 |
| 20260905165948 | 73 | 0 | 0.0 | 0.0 | 0.00 | 0.00 | 0.00 | 24 | 1009.6 |
| 20260905165048 | 73 | 0 | 0.0 | 0.0 | 0.00 | 0.00 | 0.00 | 24 | 1009.6 |
| 20260905163248 | 72 | 0 | 0.0 | 0.0 | 0.00 | 0.00 | 0.00 | 23 | 1009.6 |
| 20260905162348 | 72 | 0 | 0.0 | 0.0 | 0.00 | 0.00 | 0.00 | 23 | 1009.6 |
| 20260905161448 | 72 | 0 | 0.0 | 0.0 | 0.00 | 0.00 | 0.00 | 22 | 1009.6 |
| 20260905155648 | 73 | 0 | 0.0 | 0.0 | 0.00 | 0.00 | 0.00 | 16 | 1009.6 |
| 20260905154748 | 73 | 0 | 0.0 | 0.0 | 0.00 | 0.00 | 0.00 | 14 | 1009.6 |
| 20260905153848 | 73 | 0 | 0.0 | 0.0 | 0.00 | 0.00 | 0.00 | 8 | 1009.6 |
| 20260905152948 | 74 | 0 | 0.0 | 0.0 | 0.00 | 0.00 | 0.00 | 3 | 1009.6 |
| 20260905152048 | 75 | 0 | 0.0 | 0.0 | 0.00 | 0.00 | 0.00 | 2 | 1009.6 |
| 20260905151148 | 75 | 0 | 0.0 | 0.0 | 0.00 | 0.00 | 0.00 | 2 | 1009.6 |
| 20260905150248 | 76 | 0 | 0.0 | 0.0 | 0.00 | 0.00 | 0.00 | 2 | 1009.6 |
| 20260905145348 | 76 | 0 | 0.0 | 0.0 | 0.00 | 0.00 | 0.00 | 2 | 1010.6 |
| 20260905144447 | 77 | 174 | 0.0 | 7.0 | 0.00 | 0.00 | 0.00 | 2 | 1010.6 |
| 20260905143548 | 78 | 207 | 0.0 | 5.0 | 0.00 | 0.00 | 0.00 | 2 | 1009.6 |
| 20260905142647 | 78 | 292 | 0.0 | 2.0 | 0.00 | 0.00 | 0.00 | 2 | 1009.6 |
| 20260905141747 | 79 | 158 | 0.0 | 3.0 | 0.00 | 0.00 | 0.00 | 2 | 1009.6 |
| 20260905140847 | 79 | 292 | 0.0 | 4.0 | 0.00 | 0.00 | 0.00 | 2 | 1010.6 |
| 20260905135947 | 80 | 182 | 0.0 | 4.0 | 0.00 | 0.00 | 0.00 | 2 | 1010.6 |
| 20260905135047 | 80 | 256 | 0.0 | 4.0 | 0.00 | 0.00 | 0.00 | 2 | 1010.6 |
| 20260905134147 | 80 | 200 | 3.0 | 8.0 | 0.00 | 0.00 | 0.00 | 2 | 1010.6 |
| 20260905132347 | 82 | 146 | 0.0 | 4.0 | 0.00 | 0.00 | 0.00 | 2 | 1010.6 |
| 20260905131447 | 82 | 141 | 0.0 | 6.0 | 0.00 | 0.00 | 0.00 | 2 | 1010.6 |
| 20260905125647 | 82 | 201 | 3.0 | 4.0 | 0.00 | 0.00 | 0.00 | 2 | 1010.6 |
| 20260905124747 | 82 | 158 | 0.0 | 2.0 | 0.00 | 0.00 | 0.00 | 2 | 1010.6 |
| 20260905123847 | 82 | 122 | 2.0 | 7.0 | 0.00 | 0.00 | 0.00 | 2 | 1010.6 |
| 20260905122947 | 84 | 108 | 0.0 | 3.0 | 0.00 | 0.00 | 0.00 | 2 | 1010.6 |
| 20260905120247 | 84 | 166 | 1.0 | 4.0 | 0.00 | 0.00 | 0.00 | 2 | 1011.6 |
| 20260905115347 | 85 | 285 | 0.0 | 4.0 | 0.00 | 0.00 | 0.00 | 2 | 1011.6 |
| 20260905114447 | 84 | 248 | 2.0 | 5.0 | 0.00 | 0.00 | 0.00 | 2 | 1011.6 |
| 20260905113547 | 85 | 158 | 0.0 | 3.0 | 0.00 | 0.00 | 0.00 | 2 | 1011.6 |
| 20260905112647 | 85 | 144 | 0.0 | 3.0 | 0.00 | 0.00 | 0.00 | 2 | 1011.6 |
| 20260905111747 | 87 | 246 | 0.0 | 2.0 | 0.00 | 0.00 | 0.00 | 2 | 1011.6 |
| 20260905110847 | 86 | 0 | 0.0 | 0.0 | 0.00 | 0.00 | 0.00 | 2 | 1011.6 |
| 20260905105946 | 86 | 198 | 0.0 | 3.0 | 0.00 | 0.00 | 0.00 | 2 | 1011.6 |